Location: Shannon
(40.5500°S, 175.4167°E)
Time: 22:11:04
(UTC+00:00)

Cosmos 1110 Rocket - Pass Details

Date: 17 November 2025
Orbit: 748 x 777 km, 74.0° (Epoch: 06 December)

Event Time Altitude Azimuth Distance (km) Brightness Sun altitude
Rises 15:55:20 0° 206° (SSW) 3,241 7.4 -9.6°
Reaches altitude 10° 15:57:48 10° 212° (SSW) 2,312 6.5 -9.2°
Maximum altitude 16:02:46 45° 283° (WNW) 1,036 4.3 -8.5°
Drops below altitude 10° 16:07:44 10° 354° (N) 2,300 6.1 -7.7°
Sets 16:10:11 0° 0° (N) 3,222 6.9 -7.3°
